User: anonymous   Login
Location: Clinton NY
(43.0598°N, 75.3602°W)
Time: 06:05:17
(UTC-04:00)
Language:

Iridium 11 - Orbit

View from above orbital plane
View from above orbital plane
View from above satellite
View from above satellite

Ground track
Ground track

The orbit data is extracted from the following two-line orbital elements,

1 25578U 98074B   16119.42823075  .00000158  00000-0  49196-4 0  9991
2 25578  86.3965  68.9971 0002214  88.1738  30.8122 14.34214965917956
Epoch (UTC): 28 April 2016 10:16:39
Eccentricity: 0.0002214
inclination: 86.3965°
perigee height: 776 km
apogee height: 779 km
right ascension of ascending node: 68.9971°
argument of perigee: 88.1738°
revolutions per day: 14.34214965
mean anomaly at epoch: 30.8122°
orbit number at epoch: 91795

The dashed part of the orbit path shows where the satellite is in the earth's shadow,  

DLR